Weather History for Kelso-Longview, WA

Change the Weather History Date:

Thursday, July 11, 2013

  Actual Average Record
Temperature  
Mean Temperature 60 °F -  
Max Temperature 73 °F 73 °F 95 °F (2007)
Min Temperature 48 °F 52 °F 44 °F (2008)
Degree Days  
Heating Degree Days 4    
Growing Degree Days 10 (Base 50)    
Moisture  
Dew Point 46 °F    
Average Humidity 59    
Maximum Humidity 87    
Minimum Humidity 41    
Precipitation  
Precipitation 0.00 in - - ()
Sea Level Pressure  
Sea Level Pressure 30.05 in    
Wind  
Wind Speed 4 mph (WNW)    
Max Wind Speed 12 mph    
Max Gust Speed 21 mph    
Visibility 10 miles    
Events      
Averages and records for this station are not official NWS values.
T = Trace of Precipitation, MM = Missing Value Source: NWS Daily Summary

Daily Weather History Graph

Daily Weather History Graph

Search for Another Location

Airport:

Trip Planner

Search our weather history database for the weather conditions in past years. The results will help you decide how hot, cold, wet, or windy it might be!

Date:

Astronomy

Jul. 11, 2013 Rise Set
Actual Time 5:31 AM PDT 9:02 PM PDT
Civil Twilight 4:54 AM PDT 9:39 PM PDT
Nautical Twilight 4:04 AM PDT 10:28 PM PDT
Astronomical Twilight 2:59 AM PDT 11:33 PM PDT
Moon 9:09 AM PDT (7/11) 10:29 PM PDT (7/11)
Length of Visible Light 16h 45m
Length of Day
15h 30m
Waxing Crescent, 11% of the Moon is Illuminated
Jul 11
Waxing Crescent
Jul 15
First Quarter
Jul 22
Full
Jul 29
Last Quarter
Aug 6
New

Hourly Weather History & Observations

Time (PDT) Temp. Dew Point Humidity Pressure Visibility Wind Dir Wind Speed Gust Speed Precip Events Conditions
12:15 AM 55.4 °F 44.6 °F 67% 30.05 in 10.0 mi North 4.6 mph - N/A   Clear
12:35 AM 55.4 °F 44.6 °F 67% 30.06 in 10.0 mi NNW 4.6 mph - N/A   Clear
12:55 AM 55.4 °F 44.6 °F 67% 30.06 in 10.0 mi NW 5.8 mph - N/A   Clear
1:15 AM 55.4 °F 42.8 °F 63% 30.06 in 10.0 mi NNW 4.6 mph - N/A   Clear
1:35 AM 55.4 °F 44.6 °F 67% 30.06 in 10.0 mi NNE 3.5 mph - N/A   Scattered Clouds
1:55 AM 53.6 °F 44.6 °F 72% 30.06 in 10.0 mi NW 4.6 mph - N/A   Mostly Cloudy
2:15 AM 53.6 °F 44.6 °F 72% 30.06 in 10.0 mi North 3.5 mph - N/A   Partly Cloudy
2:35 AM 53.6 °F 44.6 °F 72% 30.06 in 10.0 mi NW 3.5 mph - N/A   Clear
2:55 AM 53.6 °F 44.6 °F 72% 30.06 in 10.0 mi NNE 3.5 mph - N/A   Scattered Clouds
3:15 AM 51.8 °F 44.6 °F 76% 30.07 in 10.0 mi Calm Calm - N/A   Overcast
3:35 AM 53.6 °F 44.6 °F 72% 30.07 in 10.0 mi Calm Calm - N/A   Overcast
3:55 AM 51.8 °F 44.6 °F 76% 30.07 in 10.0 mi Calm Calm - N/A   Scattered Clouds
4:15 AM 50.0 °F 44.6 °F 82% 30.07 in 10.0 mi Calm Calm - N/A   Clear
4:35 AM 48.2 °F 42.8 °F 82% 30.08 in 10.0 mi WNW 3.5 mph - N/A   Clear
4:55 AM 48.2 °F 42.8 °F 82% 30.08 in 10.0 mi WNW 3.5 mph - N/A   Partly Cloudy
5:15 AM 48.2 °F 42.8 °F 82% 30.09 in 10.0 mi Calm Calm - N/A   Mostly Cloudy
5:35 AM 50.0 °F 44.6 °F 82% 30.09 in 10.0 mi NW 3.5 mph - N/A   Overcast
5:55 AM 48.2 °F 44.6 °F 87% 30.10 in 10.0 mi Calm Calm - N/A   Mostly Cloudy
6:15 AM 50.0 °F 44.6 °F 82% 30.10 in 10.0 mi Calm Calm - N/A   Overcast
6:35 AM 50.0 °F 44.6 °F 82% 30.10 in 10.0 mi Calm Calm - N/A   Overcast
6:55 AM 50.0 °F 44.6 °F 82% 30.11 in 10.0 mi Calm Calm - N/A   Overcast
7:15 AM 51.8 °F 44.6 °F 76% 30.10 in 10.0 mi Calm Calm - N/A   Overcast
7:35 AM 53.6 °F 44.6 °F 72% 30.11 in 10.0 mi Calm Calm - N/A   Overcast
7:55 AM 53.6 °F 44.6 °F 72% 30.11 in 10.0 mi Calm Calm - N/A   Overcast
8:15 AM 55.4 °F 46.4 °F 72% 30.10 in 10.0 mi Calm Calm - N/A   Overcast
8:35 AM 57.2 °F 44.6 °F 63% 30.10 in 10.0 mi Calm Calm - N/A   Mostly Cloudy
8:55 AM 59.0 °F 44.6 °F 59% 30.09 in 10.0 mi Calm Calm - N/A   Partly Cloudy
9:15 AM 60.8 °F 46.4 °F 59% 30.09 in 10.0 mi Calm Calm - N/A   Mostly Cloudy
9:35 AM 60.8 °F 46.4 °F 59% 30.09 in 10.0 mi SSW 3.5 mph - N/A   Mostly Cloudy
9:55 AM 62.6 °F 44.6 °F 52% 30.09 in 10.0 mi Calm Calm - N/A   Overcast
10:15 AM 62.6 °F 44.6 °F 52% 30.09 in 10.0 mi Calm Calm - N/A   Overcast
10:35 AM 64.4 °F 44.6 °F 49% 30.09 in 10.0 mi NNE 3.5 mph - N/A   Mostly Cloudy
10:55 AM 64.4 °F 44.6 °F 49% 30.09 in 10.0 mi ENE 5.8 mph - N/A   Partly Cloudy
11:15 AM 66.2 °F 44.6 °F 46% 30.08 in 10.0 mi NNE 5.8 mph - N/A   Mostly Cloudy
11:35 AM 66.2 °F 46.4 °F 49% 30.08 in 10.0 mi NW 4.6 mph - N/A   Scattered Clouds
11:55 AM 66.2 °F 46.4 °F 49% 30.08 in 10.0 mi West 4.6 mph - N/A   Scattered Clouds
12:15 PM 66.2 °F 48.2 °F 52% 30.08 in 10.0 mi SSW 3.5 mph - N/A   Overcast
12:35 PM 69.8 °F 46.4 °F 43% 30.08 in 10.0 mi Calm Calm - N/A   Mostly Cloudy
12:55 PM 68.0 °F 48.2 °F 49% 30.07 in 10.0 mi West 5.8 mph - N/A   Scattered Clouds
1:15 PM 68.0 °F 46.4 °F 46% 30.07 in 10.0 mi WNW 3.5 mph - N/A   Partly Cloudy
1:35 PM 69.8 °F 48.2 °F 46% 30.06 in 10.0 mi NW 3.5 mph - N/A   Mostly Cloudy
1:55 PM 69.8 °F 48.2 °F 46% 30.06 in 10.0 mi West 3.5 mph - N/A   Mostly Cloudy
2:15 PM 71.6 °F 48.2 °F 43% 30.05 in 10.0 mi WSW 5.8 mph - N/A   Mostly Cloudy
2:35 PM 71.6 °F 48.2 °F 43% 30.05 in 10.0 mi Calm Calm - N/A   Scattered Clouds
2:55 PM 71.6 °F 48.2 °F 43% 30.04 in 10.0 mi West 5.8 mph - N/A   Partly Cloudy
3:15 PM 71.6 °F 48.2 °F 43% 30.04 in 10.0 mi WNW 4.6 mph - N/A   Clear
3:35 PM 73.4 °F 48.2 °F 41% 30.03 in 10.0 mi West 6.9 mph - N/A   Clear
3:55 PM 71.6 °F 48.2 °F 43% 30.03 in 10.0 mi West 4.6 mph - N/A   Clear
4:15 PM 71.6 °F 48.2 °F 43% 30.02 in 10.0 mi WSW 6.9 mph 16.1 mph N/A   Clear
4:35 PM 71.6 °F 48.2 °F 43% 30.02 in 10.0 mi West 8.1 mph 16.1 mph N/A   Clear
4:55 PM 71.6 °F 48.2 °F 43% 30.01 in 10.0 mi West 9.2 mph 16.1 mph N/A   Clear
5:15 PM 71.6 °F 48.2 °F 43% 30.01 in 10.0 mi West 6.9 mph 16.1 mph N/A   Clear
5:35 PM 69.8 °F 48.2 °F 46% 30.00 in 10.0 mi WSW 11.5 mph 17.3 mph N/A   Clear
5:55 PM 69.8 °F 46.4 °F 43% 30.00 in 10.0 mi West 11.5 mph 17.3 mph N/A   Clear
6:15 PM 69.8 °F 46.4 °F 43% 30.00 in 10.0 mi West 8.1 mph 16.1 mph N/A   Clear
6:35 PM 69.8 °F 46.4 °F 43% 30.00 in 10.0 mi West 6.9 mph 16.1 mph N/A   Clear
6:55 PM 68.0 °F 46.4 °F 46% 30.00 in 10.0 mi West 8.1 mph 18.4 mph N/A   Clear
7:15 PM 66.2 °F 46.4 °F 49% 30.00 in 10.0 mi West 11.5 mph 20.7 mph N/A   Clear
7:35 PM 66.2 °F 46.4 °F 49% 30.00 in 10.0 mi West 6.9 mph - N/A   Clear
7:55 PM 64.4 °F 46.4 °F 52% 30.00 in 10.0 mi West 8.1 mph - N/A   Clear
8:15 PM 64.4 °F 44.6 °F 49% 30.00 in 10.0 mi West 5.8 mph - N/A   Clear
8:35 PM 62.6 °F 44.6 °F 52% 30.01 in 10.0 mi WNW 4.6 mph - N/A   Clear
8:55 PM 62.6 °F 44.6 °F 52% 30.01 in 10.0 mi West 3.5 mph - N/A   Clear
9:15 PM 62.6 °F 44.6 °F 52% 30.01 in 10.0 mi Calm Calm - N/A   Clear
9:35 PM 60.8 °F 44.6 °F 55% 30.02 in 10.0 mi West 4.6 mph - N/A   Clear
9:55 PM 60.8 °F 46.4 °F 59% 30.02 in 10.0 mi WNW 3.5 mph - N/A   Clear
10:15 PM 60.8 °F 46.4 °F 59% 30.03 in 10.0 mi Calm Calm - N/A   Clear
10:35 PM 59.0 °F 46.4 °F 63% 30.03 in 10.0 mi West 5.8 mph - N/A   Clear
10:55 PM 59.0 °F 46.4 °F 63% 30.03 in 10.0 mi WNW 4.6 mph - N/A   Clear
11:15 PM 57.2 °F 46.4 °F 67% 30.03 in 10.0 mi Calm Calm - N/A   Clear
11:35 PM 57.2 °F 46.4 °F 67% 30.03 in 10.0 mi Calm Calm - N/A   Clear
11:55 PM 57.2 °F 46.4 °F 67% 30.03 in 10.0 mi Calm Calm - N/A   Clear